TimeCDT,TemperatureF,Dew PointF,Humidity,Sea Level PressureIn,VisibilityMPH,Wind Direction,Wind SpeedMPH,Gust SpeedMPH,PrecipitationIn,Events,Conditions,WindDirDegrees,DateUTC
12:53 AM,81.0,66.0,60,29.90,10.0,South,6.9,-,N/A,,Clear,180,2013-07-08 05:53:00
1:53 AM,81.0,66.0,60,29.90,10.0,SSW,9.2,-,N/A,,Scattered Clouds,200,2013-07-08 06:53:00
2:53 AM,81.0,66.0,60,29.90,10.0,SW,8.1,-,N/A,,Scattered Clouds,220,2013-07-08 07:53:00
3:53 AM,81.0,66.0,60,29.91,10.0,SW,10.4,-,N/A,,Scattered Clouds,230,2013-07-08 08:53:00
4:53 AM,81.0,66.0,60,29.91,10.0,South,5.8,-,N/A,,Clear,170,2013-07-08 09:53:00
5:53 AM,82.0,66.0,58,29.92,10.0,West,8.1,-,N/A,,Mostly Cloudy,270,2013-07-08 10:53:00
6:53 AM,82.0,66.0,58,29.91,10.0,SW,9.2,-,0.00,,Mostly Cloudy,230,2013-07-08 11:53:00
7:53 AM,82.0,66.0,58,29.93,10.0,WSW,11.5,-,0.00,,Scattered Clouds,240,2013-07-08 12:53:00
8:53 AM,81.0,68.0,65,29.95,10.0,SSW,10.4,-,N/A,,Clear,200,2013-07-08 13:53:00
9:53 AM,84.9,70.0,61,29.96,10.0,SW,10.4,-,N/A,,Clear,220,2013-07-08 14:53:00
10:53 AM,86.0,70.0,59,29.96,10.0,SSW,15.0,20.7,N/A,,Clear,210,2013-07-08 15:53:00
11:53 AM,89.1,69.1,52,29.96,10.0,WSW,13.8,-,N/A,,Clear,240,2013-07-08 16:53:00
12:53 PM,90.0,70.0,52,29.96,10.0,SW,10.4,-,N/A,,Clear,220,2013-07-08 17:53:00
1:53 PM,90.0,70.0,52,29.95,10.0,SSW,8.1,-,N/A,,Partly Cloudy,210,2013-07-08 18:53:00
2:53 PM,90.0,72.0,55,29.94,10.0,Calm,Calm,-,0.00,,Scattered Clouds,0,2013-07-08 19:53:00
3:53 PM,91.9,71.1,50,29.93,10.0,South,6.9,-,N/A,,Clear,190,2013-07-08 20:53:00
4:53 PM,95.0,72.0,47,29.92,10.0,SSE,6.9,-,N/A,,Clear,160,2013-07-08 21:53:00
5:53 PM,93.0,70.0,47,29.91,10.0,SSE,10.4,-,N/A,,Clear,160,2013-07-08 22:53:00
6:53 PM,91.0,75.0,59,29.90,10.0,SSE,5.8,-,N/A,,Clear,150,2013-07-08 23:53:00
7:53 PM,88.0,73.0,61,29.90,10.0,SE,5.8,-,N/A,,Clear,130,2013-07-09 00:53:00
8:53 PM,84.9,73.9,69,29.89,10.0,SE,6.9,-,N/A,,Clear,130,2013-07-09 01:53:00
9:53 PM,84.0,71.1,65,29.91,10.0,SSE,11.5,-,N/A,,Clear,160,2013-07-09 02:53:00
10:53 PM,84.0,68.0,58,29.92,10.0,South,9.2,-,N/A,,Partly Cloudy,170,2013-07-09 03:53:00
11:53 PM,84.0,68.0,58,29.90,10.0,South,10.4,-,N/A,,Scattered Clouds,170,2013-07-09 04:53:00